Regional Weather Roundup
Issued by NWS

Home | Current Version | Previous Version | Text Only | Print | Product List | Glossary Off
Versions: 1 2 3 4 5 6 7 8 9 10 11 12 13 14 15 16 17 18 19 20 21 22 23 24 25 26 27

000
ASUS45 KBOU 231010
RWRCO

WEATHER ROUNDUP FOR COLORADO
NATIONAL WEATHER SERVICE DENVER/BOULDER CO
300 AM MST TUE JAN 23 2018

NOTE: "FAIR" INDICATES FEW OR NO CLOUDS BELOW 12000 FEET WITH NO
SIGNIFICANT WEATHER AND/OR OBSTRUCTIONS TO VISIBILITY.

COZ001>005-013-030-031-231100-
...NORTHWEST COLORADO...

CITY           SKY/WX    TMP DP  RH WIND       PRES   REMARKS
CRAIG          CLOUDY    14  10  84 CALM      30.27R
HAYDEN         FLURRIES  13  10  88 S5        30.27R WCI   5
MEEKER         CLOUDY    18  14  84 CALM      30.27R
RABBIT EARS PA LGT SNOW N/A N/A N/A W14G23    30.09S VSB 3/4
STEAMBOAT SPGS CLOUDY    12  10  89 CALM      30.24S
WALDEN         CLOUDY    18   9  68 SW9       30.16R WCI   6
$$

COZ006>008-011-231100-
...WEST CENTRAL VALLEYS...

CITY           SKY/WX    TMP DP  RH WIND       PRES   REMARKS
GRAND JUNCTION CLOUDY    19  16  88 E6        30.32R WCI  11
MONTROSE       CLOUDY    21  12  68 SE8       30.33S WCI  11
EAGLE          CLOUDY    17  13  84 E7        30.29R WCI   8
RIFLE          CLOUDY    25  19  78 CALM      30.31S
DELTA          CLOUDY    24  15  69 CALM      30.34R
NUCLA          FAIR      14   9  79 CALM      30.34S
$$

COZ017>023-064>068-231100-
...SOUTHWEST COLORADO...

CITY           SKY/WX    TMP DP  RH WIND       PRES   REMARKS
DURANGO        FAIR       4   2  91 E3        30.23F
CORTEZ         FAIR       8   4  83 E6        30.28S WCI  -2
PAGOSA SPRINGS FAIR       5   2  90 CALM      30.22S
TELLURIDE      FAIR      10   4  80 SE6       30.23S WCI   0
WOLF CREEK PAS FAIR      10  -6  48 W8        30.18S WCI  -1
$$

COZ009-010-012-014-032>034-037-058>063-231100-
...CENTRAL COLORADO...

CITY           SKY/WX    TMP DP  RH WIND       PRES   REMARKS
ASPEN          FLURRIES  16  13  88 CALM      30.22S
BUENA VISTA    FAIR      18   4  55 N5        30.15S WCI  11
COPPER MTN     NOT AVBL
BERTHOUD PASS  SNOW       1  -9  60 NW40G52   29.97R VSB 1/2 WCI -27
COTTONWOOD PAS FAIR      23   9  54 NW3       30.10S
GUNNISON       FAIR       2  -4  76 NE5       30.27R WCI  -8
KREMMLING      CLOUDY    14   9  79 CALM      30.24S
LEADVILLE      CLOUDY     2  -1  88 NE6       30.13S WCI  -9
MONARCH PASS   FAIR       5   1  85 W33G43    30.16R WCI -20
SALIDA         FAIR      14   3  61 CALM      30.24S
SUNLIGHT       LGT SNOW  10   7  85 W5        30.20S WCI   2
WILKERSON PASS   N/A      9   0  66 NW9G20    30.08F WCI  -5
$$

COZ069>075-231100-
...SAN LUIS VALLEY/SANGRE DE CRISTO MOUNTAINS...

CITY           SKY/WX    TMP DP  RH WIND       PRES   REMARKS
ALAMOSA        FAIR      -7 -10  87 N3        30.21R
DEL NORTE      FAIR      11  -4  52 W15       30.20S WCI  -6
LA VETA PASS   FAIR      14   3  62 S35G44      N/A  WCI  -8
SAGUACHE       FAIR       9   0  66 NW7       30.21R WCI  -3
$$

COZ035-036-038>040-231100-
...NORTHERN COLORADO FRONT RANGE...

CITY           SKY/WX    TMP DP  RH WIND       PRES   REMARKS
DENVER INTL AP MOCLDY    31  10  41 NW5       30.12S WCI  26
DMNS CITY PARK NOT AVBL
AURORA         MOCLDY    27  12  53 N10       30.12R WCI  18
FRONT RANGE AP CLOUDY    28  15  57 W7        30.13S WCI  21
ERIE MUNI ARPT FAIR      24  13  63 CALM      30.19R
BOULDER MUN AP FAIR      28  14  54 N8        30.13R WCI  20
CENTENNIAL     FAIR      27   9  46 CALM      30.12R
BROOMFIELD     FAIR      28  12  50 W7        30.13R WCI  21
FORT COLLINS   FAIR      22  15  75 CALM      30.14R
LONGMONT       FAIR      21  12  68 CALM      30.16S
$$

COZ041-046-047-076>085-087-088-231100-
...PIKES PEAK/PALMER DIVIDE AND SOUTHERN FOOTHILLS...

CITY           SKY/WX    TMP DP  RH WIND       PRES   REMARKS
COLO. SPRINGS  FAIR      20   7  57 NE8       30.14R WCI  10
A. F. ACADEMY  FAIR      14   1  56 CALM      30.12R
SCHRIEVER AFB  FAIR      17   7  65 CALM      30.14R
CHEYENNE MTN   FAIR      24   3  39 NW7       30.06R WCI  16
ELLICOTT         N/A    N/A N/A N/A CALM      30.12R
FALCON         FAIR      15   2  57 W6        30.13S WCI   6
FORT CARSON    FAIR      18   8  63 N9        30.12R WCI   7
LIMON          FAIR      12   6  77 NW3       30.14R
MONUMENT HILL  FAIR      19   1  45 SW8       30.12R WCI   9
CANON CITY     FAIR      28   9  43 W14       30.13S WCI  17
WALSENBURG     NOT AVBL
TRINIDAD       FAIR      16   3  56 W14       30.13R WCI   2
$$

COZ042>045-048>051-090-091-231100-
...NORTHEAST COLORADO...

CITY           SKY/WX    TMP DP  RH WIND       PRES   REMARKS
GREELEY ARPT   FAIR      17  13  84 W7        30.15R WCI   8
AKRON          FAIR      20  12  71 W12       30.12S WCI   8
BURLINGTON     FAIR      14   7  73 W8        30.14R WCI   3
WRAY           FAIR      19  14  79 W7        30.13S WCI  10
YUMA           FAIR      25  14  63 W12       30.13R WCI  14
STERLING       CLOUDY    32  23  69 NW14      30.13S WCI  22
HOLYOKE        FAIR      27  18  69 W13       30.12S WCI  16
FORT MORGAN    FAIR      20  11  69 NW9       30.14F WCI   9
$$

COZ086-089-092>099-231100-
...SOUTHEAST COLORADO...

CITY           SKY/WX    TMP DP  RH WIND       PRES   REMARKS
PUEBLO         FAIR      21  10  62 W9        30.14S WCI  11
LA JUNTA       FAIR      24  10  55 SW10      30.15S WCI  14
LAMAR          FAIR      12   6  77 SW3       30.15F
SPRINGFIELD      N/A     12   6  77 NW9       30.15R WCI   0
$$




USA.gov is the U.S. government's official web portal to all federal, state and local government web resources and services.